{"data":{"norad_id":68708,"epoch":"2026-05-25T05:01:19.789248Z","epoch_age_seconds":49895,"freshness":"FRESH","line1":"1 68708U 26081K   26145.20925682 -.00306599  00000+0 -65528-2 0  9999","line2":"2 68708  53.1600  39.0016 0001732  35.7313 324.3810 15.45421693  6456","mean_motion":15.45421693,"eccentricity":0.0001732,"inclination_deg":53.16,"raan_deg":39.0016,"arg_perigee_deg":35.7313,"mean_anomaly_deg":324.381,"bstar":-0.0065528,"rev_number":645,"period_min":93.178451326424,"perigee_km":428.96009902608,"apogee_km":431.3184859338,"semimajor_km":6808.2762924799,"source":"CELESTRAK","updated_at":"2026-05-25T13:38:21.999479Z"}}